Other Public Products
Issued by NWS Charleston, SC

Current Version | Previous Version | Graphics & Text | Print | Product List | Glossary On
Versions: 1 2 3 4 5 6 7 8 9 10 11 12 13 14 15 16 17 18 19 20 21 22 23 24 25 26 27 28 29 30 31 32 33 34 35 36 37 38 39 40 41 42 43 44 45 46 47 48 49 50
745
FPUS82 KCHS 232327
OPUCHS

TEST...KCHS/KSAV Gateway Observations...TEST
National Weather Service Charleston SC
700 PM EDT WED MAY 23 2018

NOTE: "fair" indicates few or no clouds below 12,000 feet with no
significant weather and/or obstructions to visibility.

SCZ050-WAZ558-NCZ071-TXZ119-213-PAZ071-DCZ001-FLZ074-172-MI076-
NYZ176-178-MAZ016-IL014-TNZ027-NJZ106-GAZ044-MD014-240000-

...Gateway Observations for Charleston International...

CITY           SKY/WX    TMP DP  RH WIND       PRES   REMARKS
Chas Airport   PTSUNNY   79  65  62 S8        30.05S
Seattle        MOSUNNY   78  52  40 SW9       29.79S
Charlotte      PTSUNNY   83  70  64 SW5       30.02S
Dallas DFW     MOSUNNY   90  64  42 S10       29.96F HX  91
Dallas Love    MOSUNNY   91  66  43 S10G18    29.98S HX  93
Philladelphia  FAIR      78  53  41 N12       29.98S
Wash National  FAIR      79  56  45 N12       30.03R
Baltimore      FAIR      78  58  49 NW10      30.01S
Miami          PTSUNNY   81  72  74 E13       30.04S
Detroit        FAIR      77  55  46 S10       30.15S
Newark         FAIR      81  51  35 NW13G21   29.94R
Laguardia      FAIR      78  52  40 NW9       29.93R
J F K          FAIR      80  53  39 NW12      29.94R
Boston Logan   PTSUNNY   83  44  25 W12       29.83R
Ft. Lauderdale PTSUNNY   80  74  81 E13       30.04S
Chicago O`Hare FAIR      78  47  33 E9        30.14S
Chicago Midway PTSUNNY   75  46  35 E10       30.15S
Houston Bush   PTSUNNY   80  71  74 SE8       29.99F
Houston Hobby  PTSUNNY   80  72  76 SE9       29.99S
Nashville      PTSUNNY   85  63  47 N12       30.06S
Atlanta        PTSUNNY   82  67  60 E5        30.04S

$$

GAZ044-118-TXZ119-213-NCZ071-DCZ001-MDZ014-506-PAZ021-071-NJZ106-
NYZ176-178-MAZ106-OHZ011-021-055-MIZ076-KYZ091-ILZ014-INZ047-
MNZ060-ONZ431-240000-

...Gateway Observations for Savannah International...

CITY           SKY/WX    TMP DP  RH WIND       PRES   REMARKS
Savannah Arpt  PTSUNNY   81  68  64 S9        30.06R
Atlanta        PTSUNNY   82  67  60 E5        30.04S
Charlotte      PTSUNNY   83  70  64 SW5       30.02S
Dallas DFW     MOSUNNY   90  64  42 S10       29.96F HX  91
Houston Bush   PTSUNNY   80  71  74 SE8       29.99F
Wash National  FAIR      79  56  45 N12       30.03R
Wash Dulles    FAIR      76  57  51 NW14      30.05R
Baltimore      FAIR      78  58  49 NW10      30.01S
Philadelphia   FAIR      78  53  41 N12       29.98S
Newark         FAIR      81  51  35 NW13G21   29.94R
Laguardia      FAIR      78  52  40 NW9       29.93R
J F K          FAIR      80  53  39 NW12      29.94R
Boston         PTSUNNY   83  44  25 W12       29.83R
Pittsburg      FAIR      73  52  47 N8        30.14F
Akron          FAIR      74  49  41 N10       30.16F
Cleveland      FAIR      74  50  42 N7        30.17F
Cincinnati     FAIR      80  52  37 NE8       30.11F
Columbus       FAIR      74  55  51 MISG      30.14S
Detroit        FAIR      77  55  46 S10       30.15S
Chicago O`Hare FAIR      78  47  33 E9        30.14S
Minneapolis    PTSUNNY   82  60  47 SE7       30.06S
Indianapolis   FAIR      81  51  35 NE8       30.11F
Toronto Canada PTSUNNY   75  45  33 N12G17    30.08R

$$




USA.gov is the U.S. government's official web portal to all federal, state and local government web resources and services.